Time,TemperatureF,DewpointF,PressureIn,WindDirection,WindDirectionDegrees,WindSpeedMPH,WindSpeedGustMPH,Humidity,HourlyPrecipIn,Conditions,Clouds,dailyrainin,SoftwareType,DateUTC
2013-01-22 00:12:00,67.0,-99.9,30.04,NW,316,7.0,8.0,-999,-99.99,,,-99.99,,2013-01-22 05:12:00,
2013-01-22 00:23:00,67.0,-99.9,30.03,NW,308,6.0,8.0,-999,-99.99,,,-99.99,,2013-01-22 05:23:00,
2013-01-22 00:33:00,67.0,-99.9,30.03,NW,308,6.0,8.0,-999,-99.99,,,-99.99,,2013-01-22 05:33:00,
2013-01-22 00:43:00,66.0,-99.9,30.03,NW,322,10.0,13.0,-999,-99.99,,,-99.99,,2013-01-22 05:43:00,
2013-01-22 00:53:00,67.0,-99.9,30.03,NW,319,9.0,13.0,-999,-99.99,,,-99.99,,2013-01-22 05:53:00,
2013-01-22 01:02:00,66.0,-99.9,30.03,NW,305,9.0,11.0,-999,-99.99,,,-99.99,,2013-01-22 06:02:00,
2013-01-22 01:12:00,66.0,-99.9,30.03,NW,305,8.0,11.0,-999,-99.99,,,-99.99,,2013-01-22 06:12:00,
2013-01-22 01:22:00,66.0,-99.9,30.02,WNW,300,7.0,11.0,-999,-99.99,,,-99.99,,2013-01-22 06:22:00,
2013-01-22 01:33:00,66.0,-99.9,30.03,WNW,288,6.0,9.0,-999,-99.99,,,-99.99,,2013-01-22 06:33:00,
2013-01-22 01:43:00,66.0,-99.9,30.03,WNW,293,8.0,9.0,-999,-99.99,,,-99.99,,2013-01-22 06:43:00,
2013-01-22 01:53:00,66.0,-99.9,30.03,WNW,295,7.0,9.0,-999,-99.99,,,-99.99,,2013-01-22 06:53:00,
2013-01-22 02:03:00,65.0,-99.9,30.02,WNW,299,7.0,10.0,-999,-99.99,,,-99.99,,2013-01-22 07:03:00,
2013-01-22 02:12:00,65.0,-99.9,30.02,WNW,299,7.0,9.0,-999,-99.99,,,-99.99,,2013-01-22 07:12:00,
2013-01-22 02:22:00,65.0,-99.9,30.02,WNW,301,8.0,9.0,-999,-99.99,,,-99.99,,2013-01-22 07:22:00,
2013-01-22 02:33:00,65.0,-99.9,30.02,NW,306,9.0,10.0,-999,-99.99,,,-99.99,,2013-01-22 07:33:00,
2013-01-22 02:43:00,65.0,-99.9,30.02,WNW,303,8.0,11.0,-999,-99.99,,,-99.99,,2013-01-22 07:43:00,
2013-01-22 02:53:00,65.0,-99.9,30.02,NW,310,9.0,12.0,-999,-99.99,,,-99.99,,2013-01-22 07:53:00,
2013-01-22 03:02:00,65.0,-99.9,30.02,NW,316,11.0,13.0,-999,-99.99,,,-99.99,,2013-01-22 08:02:00,
2013-01-22 03:12:00,65.0,-99.9,30.01,NW,316,10.0,13.0,-999,-99.99,,,-99.99,,2013-01-22 08:12:00,
2013-01-22 03:22:00,65.0,-99.9,30.01,NW,315,11.0,14.0,-999,-99.99,,,-99.99,,2013-01-22 08:22:00,
2013-01-22 03:33:00,65.0,-99.9,30.01,NW,318,10.0,13.0,-999,-99.99,,,-99.99,,2013-01-22 08:33:00,
2013-01-22 03:43:00,65.0,-99.9,30.01,NW,314,9.0,13.0,-999,-99.99,,,-99.99,,2013-01-22 08:43:00,
2013-01-22 03:53:00,65.0,-99.9,30.00,NW,317,10.0,13.0,-999,-99.99,,,-99.99,,2013-01-22 08:53:00,
2013-01-22 04:02:00,65.0,-99.9,30.01,NW,316,11.0,15.0,-999,-99.99,,,-99.99,,2013-01-22 09:02:00,
2013-01-22 04:12:00,65.0,-99.9,30.01,NW,313,9.0,12.0,-999,-99.99,,,-99.99,,2013-01-22 09:12:00,
2013-01-22 04:23:00,65.0,-99.9,30.01,NW,310,9.0,13.0,-999,-99.99,,,-99.99,,2013-01-22 09:23:00,
2013-01-22 04:33:00,65.0,-99.9,30.01,NW,318,9.0,11.0,-999,-99.99,,,-99.99,,2013-01-22 09:33:00,
2013-01-22 04:43:00,65.0,-99.9,30.01,NW,316,11.0,14.0,-999,-99.99,,,-99.99,,2013-01-22 09:43:00,
2013-01-22 04:53:00,65.0,-99.9,30.01,NW,317,9.0,12.0,-999,-99.99,,,-99.99,,2013-01-22 09:53:00,
2013-01-22 05:03:00,65.0,-99.9,30.01,NW,313,9.0,13.0,-999,-99.99,,,-99.99,,2013-01-22 10:03:00,
2013-01-22 05:12:00,65.0,-99.9,30.01,NW,318,10.0,13.0,-999,-99.99,,,-99.99,,2013-01-22 10:12:00,
2013-01-22 05:22:00,65.0,-99.9,30.02,NW,313,11.0,15.0,-999,-99.99,,,-99.99,,2013-01-22 10:22:00,
2013-01-22 05:33:00,65.0,-99.9,30.02,NW,315,11.0,14.0,-999,-99.99,,,-99.99,,2013-01-22 10:33:00,
2013-01-22 05:43:00,65.0,-99.9,30.03,NW,321,12.0,16.0,-999,-99.99,,,-99.99,,2013-01-22 10:43:00,
2013-01-22 05:53:00,65.0,-99.9,30.03,NW,316,13.0,16.0,-999,-99.99,,,-99.99,,2013-01-22 10:53:00,
2013-01-22 06:03:00,65.0,-99.9,30.03,NW,320,12.0,16.0,-999,-99.99,,,-99.99,,2013-01-22 11:03:00,
2013-01-22 06:12:00,65.0,-99.9,30.04,NW,313,10.0,15.0,-999,-99.99,,,-99.99,,2013-01-22 11:12:00,
2013-01-22 06:23:00,65.0,-99.9,30.04,NW,309,12.0,16.0,-999,-99.99,,,-99.99,,2013-01-22 11:23:00,
2013-01-22 06:33:00,64.0,-99.9,30.04,NW,311,10.0,15.0,-999,-99.99,,,-99.99,,2013-01-22 11:33:00,
2013-01-22 06:43:00,64.0,-99.9,30.05,NW,309,10.0,13.0,-999,-99.99,,,-99.99,,2013-01-22 11:43:00,
2013-01-22 06:54:00,64.0,-99.9,30.05,NW,310,9.0,15.0,-999,-99.99,,,-99.99,,2013-01-22 11:54:00,
2013-01-22 07:04:00,64.0,-99.9,30.06,NW,308,11.0,14.0,-999,-99.99,,,-99.99,,2013-01-22 12:04:00,
2013-01-22 07:13:00,64.0,-99.9,30.06,NW,305,10.0,14.0,-999,-99.99,,,-99.99,,2013-01-22 12:13:00,
2013-01-22 07:23:00,64.0,-99.9,30.06,NW,305,11.0,15.0,-999,-99.99,,,-99.99,,2013-01-22 12:23:00,
2013-01-22 07:33:00,64.0,-99.9,30.06,NW,305,11.0,15.0,-999,-99.99,,,-99.99,,2013-01-22 12:33:00,
2013-01-22 07:43:00,63.0,-99.9,30.07,NW,308,11.0,13.0,-999,-99.99,,,-99.99,,2013-01-22 12:43:00,
2013-01-22 07:53:00,63.0,-99.9,30.07,NW,314,11.0,14.0,-999,-99.99,,,-99.99,,2013-01-22 12:53:00,
2013-01-22 08:04:00,63.0,-99.9,30.08,NW,313,12.0,15.0,-999,-99.99,,,-99.99,,2013-01-22 13:04:00,
2013-01-22 08:14:00,63.0,-99.9,30.08,NW,312,10.0,15.0,-999,-99.99,,,-99.99,,2013-01-22 13:14:00,
2013-01-22 08:24:00,63.0,-99.9,30.08,NW,315,13.0,15.0,-999,-99.99,,,-99.99,,2013-01-22 13:24:00,
2013-01-22 08:34:00,63.0,-99.9,30.09,NW,313,12.0,16.0,-999,-99.99,,,-99.99,,2013-01-22 13:34:00,
2013-01-22 08:43:00,64.0,-99.9,30.09,NW,314,13.0,17.0,-999,-99.99,,,-99.99,,2013-01-22 13:43:00,
2013-01-22 08:54:00,65.0,-99.9,30.09,NW,319,15.0,18.0,-999,-99.99,,,-99.99,,2013-01-22 13:54:00,
2013-01-22 09:03:00,65.0,-99.9,30.10,NW,320,13.0,17.0,-999,-99.99,,,-99.99,,2013-01-22 14:03:00,
2013-01-22 09:13:00,65.0,-99.9,30.11,NW,323,14.0,17.0,-999,-99.99,,,-99.99,,2013-01-22 14:13:00,
2013-01-22 09:23:00,65.0,-99.9,30.11,NW,319,12.0,18.0,-999,-99.99,,,-99.99,,2013-01-22 14:23:00,
2013-01-22 09:34:00,66.0,-99.9,30.11,NW,322,12.0,15.0,-999,-99.99,,,-99.99,,2013-01-22 14:34:00,
2013-01-22 09:45:00,66.0,-99.9,30.11,NNW,328,11.0,17.0,-999,-99.99,,,-99.99,,2013-01-22 14:45:00,
2013-01-22 09:54:00,67.0,-99.9,30.11,NNW,330,12.0,16.0,-999,-99.99,,,-99.99,,2013-01-22 14:54:00,
2013-01-22 10:04:00,68.0,-99.9,30.11,NNW,328,11.0,16.0,-999,-99.99,,,-99.99,,2013-01-22 15:04:00,
2013-01-22 10:13:00,68.0,-99.9,30.12,NNW,334,13.0,17.0,-999,-99.99,,,-99.99,,2013-01-22 15:13:00,
2013-01-22 10:24:00,68.0,-99.9,30.12,NNW,337,14.0,16.0,-999,-99.99,,,-99.99,,2013-01-22 15:24:00,
2013-01-22 10:34:00,69.0,-99.9,30.13,NNW,335,15.0,19.0,-999,-99.99,,,-99.99,,2013-01-22 15:34:00,
2013-01-22 10:44:00,69.0,-99.9,30.13,NNW,335,15.0,19.0,-999,-99.99,,,-99.99,,2013-01-22 15:44:00,
2013-01-22 10:54:00,69.0,-99.9,30.13,NNW,341,16.0,20.0,-999,-99.99,,,-99.99,,2013-01-22 15:54:00,
2013-01-22 11:04:00,70.0,-99.9,30.13,NNW,338,14.0,19.0,-999,-99.99,,,-99.99,,2013-01-22 16:04:00,
2013-01-22 11:13:00,70.0,-99.9,30.13,NNW,342,16.0,21.0,-999,-99.99,,,-99.99,,2013-01-22 16:13:00,
2013-01-22 11:24:00,71.0,-99.9,30.13,North,352,18.0,23.0,-999,-99.99,,,-99.99,,2013-01-22 16:24:00,
2013-01-22 11:34:00,71.0,-99.9,30.13,NNW,336,17.0,23.0,-999,-99.99,,,-99.99,,2013-01-22 16:34:00,
2013-01-22 11:43:00,71.0,-99.9,30.13,NNW,342,19.0,23.0,-999,-99.99,,,-99.99,,2013-01-22 16:43:00,
2013-01-22 11:54:00,72.0,-99.9,30.13,North,349,20.0,23.0,-999,-99.99,,,-99.99,,2013-01-22 16:54:00,
2013-01-22 12:04:00,72.0,-99.9,30.13,North,349,20.0,23.0,-999,-99.99,,,-99.99,,2013-01-22 17:04:00,
2013-01-22 12:13:00,72.0,-99.9,30.12,NNW,345,21.0,24.0,-999,-99.99,,,-99.99,,2013-01-22 17:13:00,
2013-01-22 12:24:00,72.0,-99.9,30.12,NNW,340,18.0,24.0,-999,-99.99,,,-99.99,,2013-01-22 17:24:00,
2013-01-22 12:35:00,72.0,-99.9,30.12,North,350,20.0,25.0,-999,-99.99,,,-99.99,,2013-01-22 17:35:00,
2013-01-22 12:44:00,72.0,-99.9,30.12,NNW,341,17.0,25.0,-999,-99.99,,,-99.99,,2013-01-22 17:44:00,
2013-01-22 12:54:00,72.0,-99.9,30.12,North,352,20.0,26.0,-999,-99.99,,,-99.99,,2013-01-22 17:54:00,
2013-01-22 13:04:00,72.0,-99.9,30.11,North,3,25.0,27.0,-999,-99.99,,,-99.99,,2013-01-22 18:04:00,
2013-01-22 13:13:00,72.0,-99.9,30.11,North,354,21.0,29.0,-999,-99.99,,,-99.99,,2013-01-22 18:13:00,
2013-01-22 13:24:00,71.0,-99.9,30.11,North,355,25.0,28.0,-999,-99.99,,,-99.99,,2013-01-22 18:24:00,
2013-01-22 13:34:00,71.0,-99.9,30.11,North,353,23.0,29.0,-999,-99.99,,,-99.99,,2013-01-22 18:34:00,
2013-01-22 13:44:00,71.0,-99.9,30.10,NNW,348,22.0,27.0,-999,-99.99,,,-99.99,,2013-01-22 18:44:00,
2013-01-22 13:54:00,71.0,-99.9,30.10,North,354,24.0,28.0,-999,-99.99,,,-99.99,,2013-01-22 18:54:00,
2013-01-22 14:04:00,71.0,-99.9,30.10,North,351,23.0,28.0,-999,-99.99,,,-99.99,,2013-01-22 19:04:00,
2013-01-22 14:14:00,71.0,-99.9,30.10,NNW,348,21.0,29.0,-999,-99.99,,,-99.99,,2013-01-22 19:14:00,
2013-01-22 14:24:00,70.0,-99.9,30.10,North,355,26.0,31.0,-999,-99.99,,,-99.99,,2013-01-22 19:24:00,
2013-01-22 14:34:00,70.0,-99.9,30.10,North,355,26.0,31.0,-999,-99.99,,,-99.99,,2013-01-22 19:34:00,
2013-01-22 14:44:00,70.0,-99.9,30.10,North,353,21.0,26.0,-999,-99.99,,,-99.99,,2013-01-22 19:44:00,
2013-01-22 14:54:00,70.0,-99.9,30.09,North,350,21.0,28.0,-999,-99.99,,,-99.99,,2013-01-22 19:54:00,
2013-01-22 15:03:00,70.0,-99.9,30.09,North,350,26.0,27.0,-999,-99.99,,,-99.99,,2013-01-22 20:03:00,
2013-01-22 15:13:00,70.0,-99.9,30.10,NNW,348,26.0,29.0,-999,-99.99,,,-99.99,,2013-01-22 20:13:00,
2013-01-22 15:23:00,71.0,-99.9,30.10,North,349,23.0,30.0,-999,-99.99,,,-99.99,,2013-01-22 20:23:00,
2013-01-22 15:34:00,71.0,-99.9,30.11,North,349,19.0,26.0,-999,-99.99,,,-99.99,,2013-01-22 20:34:00,
2013-01-22 15:43:00,70.0,-99.9,30.11,NNW,346,24.0,28.0,-999,-99.99,,,-99.99,,2013-01-22 20:43:00,
2013-01-22 15:54:00,70.0,-99.9,30.11,NNW,340,21.0,34.0,-999,-99.99,,,-99.99,,2013-01-22 20:54:00,
2013-01-22 16:04:00,71.0,-99.9,30.11,NNW,345,23.0,32.0,-999,-99.99,,,-99.99,,2013-01-22 21:04:00,
2013-01-22 16:13:00,71.0,-99.9,30.11,NNW,343,19.0,30.0,-999,-99.99,,,-99.99,,2013-01-22 21:13:00,
2013-01-22 16:23:00,71.0,-99.9,30.12,NNW,339,17.0,25.0,-999,-99.99,,,-99.99,,2013-01-22 21:23:00,
2013-01-22 16:34:00,72.0,-99.9,30.12,North,9,23.0,26.0,-999,-99.99,,,-99.99,,2013-01-22 21:34:00,
2013-01-22 16:44:00,71.0,-99.9,30.12,North,11,23.0,29.0,-999,-99.99,,,-99.99,,2013-01-22 21:44:00,
2013-01-22 16:53:00,71.0,-99.9,30.13,North,10,23.0,29.0,-999,-99.99,,,-99.99,,2013-01-22 21:53:00,
2013-01-22 17:03:00,71.0,-99.9,30.13,NNE,13,24.0,31.0,-999,-99.99,,,-99.99,,2013-01-22 22:03:00,
2013-01-22 17:13:00,71.0,-99.9,30.13,NNE,16,26.0,31.0,-999,-99.99,,,-99.99,,2013-01-22 22:13:00,
2013-01-22 17:23:00,71.0,-99.9,30.13,NNE,20,27.0,32.0,-999,-99.99,,,-99.99,,2013-01-22 22:23:00,
2013-01-22 17:33:00,71.0,-99.9,30.14,NNE,12,26.0,32.0,-999,-99.99,,,-99.99,,2013-01-22 22:33:00,
2013-01-22 17:44:00,71.0,-99.9,30.14,NNE,14,25.0,28.0,-999,-99.99,,,-99.99,,2013-01-22 22:44:00,
2013-01-22 17:53:00,71.0,-99.9,30.15,NNE,16,25.0,30.0,-999,-99.99,,,-99.99,,2013-01-22 22:53:00,
2013-01-22 18:03:00,71.0,-99.9,30.15,NNE,17,25.0,31.0,-999,-99.99,,,-99.99,,2013-01-22 23:03:00,
2013-01-22 18:13:00,71.0,-99.9,30.16,North,10,26.0,29.0,-999,-99.99,,,-99.99,,2013-01-22 23:13:00,
2013-01-22 18:24:00,71.0,-99.9,30.15,NNE,15,23.0,30.0,-999,-99.99,,,-99.99,,2013-01-22 23:24:00,
2013-01-22 18:34:00,71.0,-99.9,30.16,North,7,25.0,32.0,-999,-99.99,,,-99.99,,2013-01-22 23:34:00,
2013-01-22 18:43:00,70.0,-99.9,30.16,NNE,15,27.0,29.0,-999,-99.99,,,-99.99,,2013-01-22 23:43:00,
2013-01-22 18:53:00,70.0,-99.9,30.16,NNE,21,26.0,28.0,-999,-99.99,,,-99.99,,2013-01-22 23:53:00,
2013-01-22 19:03:00,70.0,-99.9,30.16,NNE,20,26.0,32.0,-999,-99.99,,,-99.99,,2013-01-23 00:03:00,
2013-01-22 19:13:00,70.0,-99.9,30.16,NNE,23,23.0,28.0,-999,-99.99,,,-99.99,,2013-01-23 00:13:00,
2013-01-22 19:23:00,70.0,-99.9,30.16,NNE,21,25.0,29.0,-999,-99.99,,,-99.99,,2013-01-23 00:23:00,
2013-01-22 19:33:00,70.0,-99.9,30.17,North,11,25.0,27.0,-999,-99.99,,,-99.99,,2013-01-23 00:33:00,
2013-01-22 19:43:00,70.0,-99.9,30.17,NNE,17,22.0,27.0,-999,-99.99,,,-99.99,,2013-01-23 00:43:00,
2013-01-22 19:53:00,70.0,-99.9,30.18,NNE,20,23.0,29.0,-999,-99.99,,,-99.99,,2013-01-23 00:53:00,
2013-01-22 20:03:00,70.0,-99.9,30.18,NNE,22,24.0,28.0,-999,-99.99,,,-99.99,,2013-01-23 01:03:00,
2013-01-22 20:13:00,70.0,-99.9,30.18,NNE,19,26.0,31.0,-999,-99.99,,,-99.99,,2013-01-23 01:13:00,
2013-01-22 20:23:00,70.0,-99.9,30.18,NNE,24,24.0,27.0,-999,-99.99,,,-99.99,,2013-01-23 01:23:00,
2013-01-22 20:33:00,70.0,-99.9,30.18,NNE,25,24.0,29.0,-999,-99.99,,,-99.99,,2013-01-23 01:33:00,
2013-01-22 20:43:00,70.0,-99.9,30.19,NNE,27,25.0,30.0,-999,-99.99,,,-99.99,,2013-01-23 01:43:00,
2013-01-22 20:53:00,70.0,-99.9,30.19,NNE,22,24.0,29.0,-999,-99.99,,,-99.99,,2013-01-23 01:53:00,
2013-01-22 21:04:00,70.0,-99.9,30.19,NNE,22,26.0,29.0,-999,-99.99,,,-99.99,,2013-01-23 02:04:00,
2013-01-22 21:13:00,70.0,-99.9,30.19,NNE,33,25.0,31.0,-999,-99.99,,,-99.99,,2013-01-23 02:13:00,
2013-01-22 21:23:00,70.0,-99.9,30.20,NNE,26,24.0,28.0,-999,-99.99,,,-99.99,,2013-01-23 02:23:00,
2013-01-22 21:33:00,70.0,-99.9,30.20,NNE,24,25.0,29.0,-999,-99.99,,,-99.99,,2013-01-23 02:33:00,
2013-01-22 21:43:00,70.0,-99.9,30.21,NNE,26,22.0,28.0,-999,-99.99,,,-99.99,,2013-01-23 02:43:00,
2013-01-22 21:54:00,70.0,-99.9,30.20,NNE,21,24.0,29.0,-999,-99.99,,,-99.99,,2013-01-23 02:54:00,
2013-01-22 22:03:00,70.0,-99.9,30.21,NNE,24,24.0,29.0,-999,-99.99,,,-99.99,,2013-01-23 03:03:00,
2013-01-22 22:13:00,70.0,-99.9,30.22,NNE,18,23.0,28.0,-999,-99.99,,,-99.99,,2013-01-23 03:13:00,
2013-01-22 22:23:00,70.0,-99.9,30.22,NNE,21,22.0,28.0,-999,-99.99,,,-99.99,,2013-01-23 03:23:00,
2013-01-22 22:33:00,70.0,-99.9,30.22,NNE,29,26.0,28.0,-999,-99.99,,,-99.99,,2013-01-23 03:33:00,
2013-01-22 22:43:00,69.0,-99.9,30.23,NNE,25,21.0,26.0,-999,-99.99,,,-99.99,,2013-01-23 03:43:00,
2013-01-22 22:53:00,69.0,-99.9,30.23,NNE,23,22.0,27.0,-999,-99.99,,,-99.99,,2013-01-23 03:53:00,
2013-01-22 23:04:00,70.0,-99.9,30.22,NNE,32,20.0,26.0,-999,-99.99,,,-99.99,,2013-01-23 04:04:00,
2013-01-22 23:13:00,69.0,-99.9,30.22,NNE,29,24.0,28.0,-999,-99.99,,,-99.99,,2013-01-23 04:13:00,
2013-01-22 23:23:00,69.0,-99.9,30.22,NNE,33,24.0,27.0,-999,-99.99,,,-99.99,,2013-01-23 04:23:00,
2013-01-22 23:33:00,70.0,-99.9,30.22,NNE,25,24.0,28.0,-999,-99.99,,,-99.99,,2013-01-23 04:33:00,
2013-01-22 23:43:00,69.0,-99.9,30.22,NNE,29,21.0,26.0,-999,-99.99,,,-99.99,,2013-01-23 04:43:00,
2013-01-22 23:53:00,69.0,-99.9,30.23,NNE,26,22.0,27.0,-999,-99.99,,,-99.99,,2013-01-23 04:53:00,